CW7595 Weather Reports


time (UTC)temp
C
wind
direction
speed
KPH
gust
KPH
rain 1hr
cm
rain 24hr
cm
rain mn
cm
humidity
%
barometer
mb
20260507154541 11 193 0.0 0.0 0.00 3.48 1.09 72 1001.0
20260507153038 11 258 0.0 0.0 0.00 3.48 1.09 70 1001.2
20260507151533 11 250 0.0 0.0 0.00 3.48 1.09 71 1001.3
20260507150028 10 290 0.0 0.0 0.00 3.48 1.09 75 1001.4
20260507144531 10 267 0.0 0.0 0.00 3.48 1.09 76 1001.5
20260507143025 9 347 0.0 0.0 0.00 3.48 1.09 77 1001.6
20260507131506 7 287 0.0 0.0 0.00 3.48 1.09 83 1001.7
20260507130004 7 277 0.0 0.0 0.00 3.48 1.09 84 1002.1
20260507124508 7 281 0.0 1.6 0.00 3.48 1.09 85 1001.9
20260507123004 7 255 0.0 9.7 0.00 3.48 1.09 86 1001.9
20260507121501 6 255 0.0 0.0 0.00 3.48 1.09 86 1001.9
20260507120105 6 275 0.0 0.0 0.00 3.51 1.09 87 1001.9
20260507114615 6 285 0.0 0.0 0.00 3.51 1.09 87 1001.8
20260507113059 6 223 0.0 0.0 0.00 3.51 1.09 87 1001.9
20260507111558 6 252 1.6 11.3 0.00 3.51 1.09 87 1001.8
20260507110104 6 290 4.8 16.1 0.00 3.63 1.09 87 1001.3
20260507104556 6 282 6.4 14.5 0.03 3.63 1.09 87 1001.8
20260507103055 5 296 8.0 14.5 0.05 3.63 1.09 87 1002.0
20260507101601 5 302 6.4 14.5 0.05 3.63 1.09 87 1001.7
20260507100053 5 360 3.2 12.9 0.08 3.78 1.09 87 1001.5
20260507094556 5 271 3.2 9.7 0.08 3.76 1.07 87 1001.2
20260507093051 5 281 3.2 14.5 0.05 3.73 1.04 87 1001.1
20260507091551 5 282 6.4 12.9 0.08 3.73 1.04 87 1001.2
20260507090053 6 321 4.8 12.9 0.05 3.84 1.02 87 1001.2
20260507084548 6 279 9.7 19.3 0.03 3.81 0.99 87 1001.1
20260507083045 6 277 8.0 17.7 0.03 3.81 0.99 87 1001.0
20260507081546 6 254 8.0 16.1 0.03 3.78 0.97 87 1000.9
20260507080041 6 300 6.4 14.5 0.03 4.11 0.97 87 1000.6
20260507074539 6 284 3.2 12.9 0.05 4.11 0.97 87 1000.8
20260507073038 6 282 6.4 12.9 0.10 4.11 0.97 87 1000.6
20260507071538 6 303 4.8 16.1 0.10 4.09 0.94 87 1000.5
20260507070039 6 272 3.2 12.9 0.25 4.09 0.91 87 1000.6
20260507064541 7 322 4.8 11.3 0.36 4.06 0.89 87 1000.9
20260507063030 7 246 4.8 11.3 0.43 4.04 0.86 87 1000.8
20260507061533 7 281 3.2 12.9 0.46 3.99 0.81 87 1000.8
20260507060031 7 262 3.2 11.3 0.38 3.84 0.66 87 1001.1
20260507054523 7 275 3.2 9.7 0.36 3.71 0.53 87 1001.0
20260507053026 7 277 1.6 14.5 0.30 3.61 0.43 87 1001.7
20260507051520 7 274 6.4 16.1 0.28 3.53 0.36 87 1001.5
20260507050020 7 324 6.4 16.1 0.30 3.45 0.28 87 1001.3
20260507044514 7 273 8.0 17.7 0.30 3.35 0.18 87 1001.2
20260507043013 7 339 0.0 0.0 0.33 3.28 0.10 87 1001.0
20260507041511 7 309 0.0 0.0 0.36 3.25 0.08 87 1000.9
20260507040010 8 305 0.0 0.0 0.28 3.15 3.15 87 1001.1
20260507034510 8 305 0.0 0.0 0.18 3.05 3.05 87 1001.4
20260507033007 8 11 0.0 0.0 0.10 2.92 2.92 87 1001.4
20260507031607 8 71 0.0 0.0 0.10 2.87 2.87 87 1001.3
20260507030004 8 22 0.0 0.0 0.13 2.84 2.84 87 1001.6
20260507024605 8 304 0.0 0.0 0.18 2.84 2.84 87 1002.0
20260507023058 8 292 0.0 0.0 0.18 2.84 2.84 87 1002.3
20260507021603 8 306 0.0 0.0 0.13 2.79 2.79 87 1002.7
20260507020054 8 314 0.0 0.0 0.08 2.74 2.74 87 1002.8
20260507014555 8 331 0.0 0.0 0.08 2.69 2.69 87 1002.9
20260507013111 8 271 0.0 0.0 0.10 2.67 2.67 87 1003.2
20260507011553 8 298 0.0 0.0 0.13 2.67 2.67 87 1003.0
20260507010054 8 270 0.0 0.0 0.20 2.72 2.67 87 1003.1
20260507004554 8 105 0.0 0.0 0.20 2.67 2.62 87 1003.3
20260507003051 8 105 0.0 0.0 0.23 2.62 2.57 86 1003.3
20260507001608 8 105 0.0 0.0 0.23 2.57 2.51 86 1003.2
20260507000051 8 105 0.0 0.0 0.25 2.64 2.46 86 1003.2
20260506234558 8 105 0.0 0.0 0.23 2.57 2.39 86 1003.2
20260506233052 8 35 0.0 0.0 0.20 2.51 2.34 86 1003.2
20260506231552 8 289 0.0 0.0 0.20 2.46 2.29 86 1003.8
20260506230048 8 65 0.0 0.0 0.20 2.59 2.21 86 1003.5
20260506224604 8 331 0.0 0.0 0.23 2.54 2.16 86 1003.7
20260506223049 8 310 0.0 0.0 0.30 2.51 2.13 86 1003.7
20260506221546 8 327 0.0 0.0 0.28 2.46 2.08 86 1003.6
20260506220101 8 327 0.0 0.0 0.25 2.69 2.01 86 1003.7
20260506214544 8 275 0.0 0.0 0.18 2.59 1.91 86 1004.0
20260506213043 8 306 0.0 0.0 0.13 2.51 1.83 86 1003.9
20260506211551 8 306 0.0 0.0 0.20 2.49 1.80 86 1003.9
20260506210041 8 79 0.0 0.0 0.25 2.44 1.75 86 1003.7
20260506204542 8 80 0.0 0.0 0.30 2.41 1.73 86 1003.8
20260506203041 8 342 0.0 0.0 0.36 2.39 1.70 85 1003.9
20260506201539 8 332 0.0 0.0 0.33 2.29 1.60 85 1004.5
20260506200039 8 101 0.0 0.0 0.30 2.18 1.50 85 1004.1
20260506194543 8 13 0.0 0.0 0.28 2.11 1.42 85 1004.3
20260506193038 8 323 0.0 1.6 0.25 2.03 1.35 85 1005.0
20260506191536 9 288 0.0 12.9 0.20 1.96 1.27 84 1004.9
20260506190034 9 285 0.0 0.0 0.15 1.88 1.19 84 1004.8
20260506184537 9 339 0.0 0.0 0.13 1.83 1.14 84 1005.0
20260506183036 10 86 0.0 0.0 0.10 1.78 1.09 84 1004.7
20260506181540 9 48 0.0 0.0 0.08 1.75 1.07 84 1005.0
20260506180033 9 297 0.0 0.0 0.13 1.73 1.04 84 1005.8
20260506174532 9 323 0.0 0.0 0.13 1.70 1.02 83 1005.8
20260506173038 9 17 0.0 0.0 0.10 1.68 0.99 83 1006.2
20260506171531 10 300 0.0 8.0 0.10 1.68 0.99 83 1006.6
20260506170030 10 132 0.0 0.0 0.03 1.60 0.91 83 1006.6
20260506164530 10 132 0.0 0.0 0.08 1.57 0.89 83 1006.5
20260506163030 10 132 0.0 0.0 0.10 1.57 0.89 82 1006.4
20260506161530 10 132 0.0 0.0 0.10 1.57 0.89 82 1006.4
20260506160037 10 195 0.0 0.0 0.10 1.57 0.89 82 1006.5